Find Local Weather

World > North America > United States > Vermont

Lyndonville, Vermont Regional Weather

Lat: 44.53N, Lon: 72W
Wx Zone: VTZ007
Warning FLW WEATHER ALERT - (More Info. Click Here) Warning
Feedback
Expires:201806250800;;078751
ASUS41 KBTV 250730
RWRBTV
VERMONT REGIONAL WEATHER ROUNDUP
NATIONAL WEATHER SERVICE BURLINGTON VT
300 AM EDT MON JUN 25 2018

NOTE: "FAIR" INDICATES FEW OR NO CLOUDS BELOW 12,000 FEET WITH NO 
SIGNIFICANT WEATHER AND/OR OBSTRUCTIONS TO VISIBILITY.

* THESE REPORTS ARE NOT UNDER NWS QUALITY CONTROL AND/OR DO NOT
  REPORT WEATHER SUCH AS PRECIPITATION AND FOG.


VTZ001>019-250800-
_____VERMONT_____

  
CITY           SKY/WX    TMP DP  RH WIND       PRES   REMARKS
BURLINGTON     LGT RAIN  59  57  93 NW9       29.91R                  
MONTPELIER     CLOUDY    57  57 100 NW8       29.92R                  
MORRISVILLE    LGT RAIN  57  56  96 N5        29.90R                  
ST. JOHNSBURY*   N/A     60  58  92 MISG      29.85R                  
LYNDONVILLE*   DRIZZLE   56  54  92 W9        29.89S                  
MIDDLEBURY*    RAIN      57  56  97 N10       29.90S                  
RUTLAND*       CLOUDY    57  57 100 NW10      29.89S FOG              
SPRINGFIELD    MOCLDY    61  61 100 CALM      29.86R                  
HIGHGATE*      CLOUDY    57  56  97 N3        29.93R                  
NEWPORT*       DRIZZLE   52  51  96 CALM      29.92S                  
BENNINGTON     MOCLDY    61  59  93 CALM      29.88R                  
MT. MANSFIELD*   N/A     48 N/A N/A NW22        N/A                   

_____LAKE CHAMPLAIN_____

  
CITY           SKY/WX    TMP DP  RH WIND       PRES   REMARKS
BURTON ISLAND*   N/A     59  57  94 NW2         N/A                   
COLCHESTER RF*   N/A     59  55  88 N20         N/A                   
DIAMOND ISL*     N/A     59  59 100 NW1         N/A                   

$$


SKY/WX - Weather  TMP - Temperature  DP - Dewpoint  RH - Relative Humidity
WIND - Wind Direction/Speed PRES - Barometric Pressure